Time,TemperatureF,DewpointF,PressureIn,WindDirection,WindDirectionDegrees,WindSpeedMPH,WindSpeedGustMPH,Humidity,HourlyPrecipIn,Conditions,Clouds,dailyrainin,SolarRadiationWatts/m^2,SoftwareType,DateUTC
2013-10-17 00:02:00,61.1,40.1,30.02,WSW,237,0.0,0.0,46,0.00,CLR,,0.00,0.0,WeatherDisplay:10.37,2013-10-17 07:02:00,
2013-10-17 00:07:00,60.8,39.9,30.02,WSW,238,0.0,0.0,46,0.00,CLR,,0.00,0.0,WeatherDisplay:10.37,2013-10-17 07:07:00,
2013-10-17 00:12:00,60.5,39.0,30.02,WSW,237,0.0,0.0,45,0.00,CLR,,0.00,0.0,WeatherDisplay:10.37,2013-10-17 07:12:00,
2013-10-17 00:17:00,60.3,38.3,30.02,WSW,238,0.0,0.0,44,0.00,CLR,,0.00,0.0,WeatherDisplay:10.37,2013-10-17 07:17:00,
2013-10-17 00:22:00,60.2,38.8,30.02,WSW,238,0.0,0.0,45,0.00,CLR,,0.00,0.0,WeatherDisplay:10.37,2013-10-17 07:22:00,
2013-10-17 00:27:00,60.2,39.3,30.02,WSW,238,0.0,0.0,46,0.00,CLR,,0.00,0.0,WeatherDisplay:10.37,2013-10-17 07:27:00,
2013-10-17 00:32:00,60.0,39.1,30.03,WSW,238,0.0,0.0,46,0.00,CLR,,0.00,0.0,WeatherDisplay:10.37,2013-10-17 07:32:00,
2013-10-17 00:37:00,59.8,39.0,30.03,WSW,238,0.0,0.0,46,0.00,CLR,,0.00,0.0,WeatherDisplay:10.37,2013-10-17 07:37:00,
2013-10-17 00:42:00,59.6,39.3,30.03,WSW,238,0.0,0.0,47,0.00,CLR,,0.00,0.0,WeatherDisplay:10.37,2013-10-17 07:42:00,
2013-10-17 00:47:00,59.5,39.2,30.03,WSW,237,0.0,0.0,47,0.00,CLR,,0.00,0.0,WeatherDisplay:10.37,2013-10-17 07:47:00,
2013-10-17 00:52:00,59.2,39.0,30.03,WSW,237,0.0,0.0,47,0.00,CLR,,0.00,0.0,WeatherDisplay:10.37,2013-10-17 07:52:00,
2013-10-17 00:57:00,59.0,38.8,30.03,WSW,238,0.0,0.0,47,0.00,CLR,,0.00,0.0,WeatherDisplay:10.37,2013-10-17 07:57:00,
2013-10-17 01:02:00,58.8,39.7,30.03,WSW,238,0.0,0.0,49,0.00,CLR,,0.00,0.0,WeatherDisplay:10.37,2013-10-17 08:02:00,
2013-10-17 01:07:00,58.8,39.1,30.03,WSW,238,0.0,0.0,48,0.00,CLR,,0.00,0.0,WeatherDisplay:10.37,2013-10-17 08:07:00,
2013-10-17 01:08:00,58.8,39.1,30.03,WSW,238,0.0,0.0,48,0.00,CLR,,0.00,0.0,WeatherDisplay:10.37,2013-10-17 08:08:00,
2013-10-17 01:13:00,58.8,39.1,30.03,WSW,238,0.0,0.0,48,0.00,CLR,,0.00,0.0,WeatherDisplay:10.37,2013-10-17 08:13:00,
2013-10-17 01:18:00,58.7,39.6,30.03,WSW,238,0.0,0.0,49,0.00,CLR,,0.00,0.0,WeatherDisplay:10.37,2013-10-17 08:18:00,
2013-10-17 01:23:00,58.6,39.5,30.03,WSW,238,0.0,0.0,49,0.00,CLR,,0.00,0.0,WeatherDisplay:10.37,2013-10-17 08:23:00,
2013-10-17 01:28:00,58.6,40.5,30.03,WSW,238,0.0,0.0,51,0.00,CLR,,0.00,0.0,WeatherDisplay:10.37,2013-10-17 08:28:00,
2013-10-17 01:33:00,58.4,40.3,30.03,WSW,237,0.0,0.0,51,0.00,CLR,,0.00,0.0,WeatherDisplay:10.37,2013-10-17 08:33:00,
2013-10-17 01:38:00,58.2,40.1,30.03,WSW,238,0.0,0.0,51,0.00,CLR,,0.00,0.0,WeatherDisplay:10.37,2013-10-17 08:38:00,
2013-10-17 01:43:00,58.0,40.0,30.03,WSW,237,0.0,0.0,51,0.00,CLR,,0.00,0.0,WeatherDisplay:10.37,2013-10-17 08:43:00,
2013-10-17 01:48:00,57.8,40.3,30.03,WSW,237,0.0,0.0,52,0.00,CLR,,0.00,0.0,WeatherDisplay:10.37,2013-10-17 08:48:00,
2013-10-17 01:53:00,57.7,40.2,30.03,WSW,238,0.0,0.0,52,0.00,CLR,,0.00,0.0,WeatherDisplay:10.37,2013-10-17 08:53:00,
2013-10-17 01:58:00,57.7,40.7,30.03,WSW,238,0.0,0.0,53,0.00,CLR,,0.00,0.0,WeatherDisplay:10.37,2013-10-17 08:58:00,
2013-10-17 02:03:00,57.5,40.5,30.03,WSW,237,0.0,0.0,53,0.00,CLR,,0.00,0.0,WeatherDisplay:10.37,2013-10-17 09:03:00,
2013-10-17 02:08:00,57.4,40.4,30.03,WSW,238,0.0,0.0,53,0.00,CLR,,0.00,0.0,WeatherDisplay:10.37,2013-10-17 09:08:00,
2013-10-17 02:13:00,57.3,40.8,30.03,WSW,238,0.0,0.0,54,0.00,CLR,,0.00,0.0,WeatherDisplay:10.37,2013-10-17 09:13:00,
2013-10-17 02:18:00,57.2,40.2,30.03,WSW,237,0.0,0.0,53,0.00,CLR,,0.00,0.0,WeatherDisplay:10.37,2013-10-17 09:18:00,
2013-10-17 02:23:00,57.1,40.1,30.03,WSW,238,0.0,0.0,53,0.00,CLR,,0.00,0.0,WeatherDisplay:10.37,2013-10-17 09:23:00,
2013-10-17 02:28:00,57.0,40.5,30.03,WSW,237,0.0,0.0,54,0.00,CLR,,0.00,0.0,WeatherDisplay:10.37,2013-10-17 09:28:00,
2013-10-17 02:33:00,56.9,39.9,30.03,WSW,237,0.0,0.0,53,0.00,CLR,,0.00,0.0,WeatherDisplay:10.37,2013-10-17 09:33:00,
2013-10-17 02:38:00,56.8,39.8,30.03,WSW,238,0.0,0.0,53,0.00,CLR,,0.00,0.0,WeatherDisplay:10.37,2013-10-17 09:38:00,
2013-10-17 02:43:00,56.8,39.8,30.03,WSW,238,0.0,0.0,53,0.00,CLR,,0.00,0.0,WeatherDisplay:10.37,2013-10-17 09:43:00,
2013-10-17 02:48:00,56.9,39.9,30.03,WSW,238,0.0,0.0,53,0.00,CLR,,0.00,0.0,WeatherDisplay:10.37,2013-10-17 09:48:00,
2013-10-17 02:53:00,56.9,39.9,30.03,WSW,238,0.0,0.0,53,0.00,CLR,,0.00,0.0,WeatherDisplay:10.37,2013-10-17 09:53:00,
2013-10-17 02:58:00,56.9,39.9,30.03,WSW,237,0.0,0.0,53,0.00,CLR,,0.00,0.0,WeatherDisplay:10.37,2013-10-17 09:58:00,
2013-10-17 03:03:00,57.0,40.0,30.02,WSW,237,0.0,0.0,53,0.00,CLR,,0.00,0.0,WeatherDisplay:10.37,2013-10-17 10:03:00,
2013-10-17 03:08:00,56.9,40.4,30.02,WSW,238,0.0,0.0,54,0.00,CLR,,0.00,0.0,WeatherDisplay:10.37,2013-10-17 10:08:00,
2013-10-17 03:14:00,56.7,40.2,30.02,WSW,237,0.0,0.0,54,0.00,CLR,,0.00,0.0,WeatherDisplay:10.37,2013-10-17 10:14:00,
2013-10-17 03:19:00,56.6,40.1,30.02,WSW,238,0.0,0.0,54,0.00,CLR,,0.00,0.0,WeatherDisplay:10.37,2013-10-17 10:19:00,
2013-10-17 03:24:00,56.5,40.5,30.02,WSW,238,0.0,0.0,55,0.00,CLR,,0.00,0.0,WeatherDisplay:10.37,2013-10-17 10:24:00,
2013-10-17 03:29:00,56.3,40.3,30.02,WSW,238,0.0,0.0,55,0.00,CLR,,0.00,0.0,WeatherDisplay:10.37,2013-10-17 10:29:00,
2013-10-17 03:34:00,56.1,40.6,30.02,WSW,238,0.0,0.0,56,0.00,CLR,,0.00,0.0,WeatherDisplay:10.37,2013-10-17 10:34:00,
2013-10-17 03:39:00,56.0,40.5,30.02,WSW,237,0.0,0.0,56,0.00,CLR,,0.00,0.0,WeatherDisplay:10.37,2013-10-17 10:39:00,
2013-10-17 03:44:00,55.9,40.9,30.02,WSW,237,0.0,0.0,57,0.00,CLR,,0.00,0.0,WeatherDisplay:10.37,2013-10-17 10:44:00,
2013-10-17 03:49:00,55.8,40.8,30.02,WSW,238,0.0,0.0,57,0.00,CLR,,0.00,0.0,WeatherDisplay:10.37,2013-10-17 10:49:00,
2013-10-17 03:54:00,55.8,41.2,30.02,WSW,238,0.0,0.0,58,0.00,CLR,,0.00,0.0,WeatherDisplay:10.37,2013-10-17 10:54:00,
2013-10-17 03:59:00,55.7,41.6,30.02,WSW,237,0.0,0.0,59,0.00,CLR,,0.00,0.0,WeatherDisplay:10.37,2013-10-17 10:59:00,
2013-10-17 04:04:00,55.7,41.1,30.02,WSW,238,0.0,0.0,58,0.00,CLR,,0.00,0.0,WeatherDisplay:10.37,2013-10-17 11:04:00,
2013-10-17 04:09:00,55.5,41.0,30.02,WSW,238,0.0,0.0,58,0.00,CLR,,0.00,0.0,WeatherDisplay:10.37,2013-10-17 11:09:00,
2013-10-17 04:14:00,55.4,41.3,30.02,WSW,237,0.0,0.0,59,0.00,CLR,,0.00,0.0,WeatherDisplay:10.37,2013-10-17 11:14:00,
2013-10-17 04:19:00,55.4,41.3,30.02,WSW,238,0.0,0.0,59,0.00,CLR,,0.00,0.0,WeatherDisplay:10.37,2013-10-17 11:19:00,
2013-10-17 04:24:00,55.3,41.2,30.02,WSW,238,0.0,0.0,59,0.00,CLR,,0.00,0.0,WeatherDisplay:10.37,2013-10-17 11:24:00,
2013-10-17 04:29:00,55.2,41.1,30.02,WSW,237,0.0,0.0,59,0.00,CLR,,0.00,0.0,WeatherDisplay:10.37,2013-10-17 11:29:00,
2013-10-17 04:34:00,55.1,41.0,30.02,WSW,238,0.0,0.0,59,0.00,CLR,,0.00,0.0,WeatherDisplay:10.37,2013-10-17 11:34:00,
2013-10-17 04:39:00,55.0,41.4,30.02,WSW,238,0.0,0.0,60,0.00,CLR,,0.00,0.0,WeatherDisplay:10.37,2013-10-17 11:39:00,
2013-10-17 04:44:00,55.1,41.5,30.01,WSW,238,0.0,0.0,60,0.00,CLR,,0.00,0.0,WeatherDisplay:10.37,2013-10-17 11:44:00,
2013-10-17 04:49:00,55.2,41.1,30.02,WSW,237,0.0,0.0,59,0.00,CLR,,0.00,0.0,WeatherDisplay:10.37,2013-10-17 11:49:00,
2013-10-17 04:54:00,55.3,41.6,30.02,WSW,237,0.0,0.0,60,0.00,CLR,,0.00,0.0,WeatherDisplay:10.37,2013-10-17 11:54:00,
2013-10-17 04:59:00,55.1,41.5,30.02,WSW,237,0.0,0.0,60,0.00,CLR,,0.00,0.0,WeatherDisplay:10.37,2013-10-17 11:59:00,
2013-10-17 05:04:00,55.0,41.8,30.02,WSW,237,0.0,0.0,61,0.00,CLR,,0.00,0.0,WeatherDisplay:10.37,2013-10-17 12:04:00,
2013-10-17 05:09:00,54.8,41.6,30.02,WSW,237,0.0,0.0,61,0.00,CLR,,0.00,0.0,WeatherDisplay:10.37,2013-10-17 12:09:00,
2013-10-17 05:14:00,54.7,42.3,30.02,WSW,237,0.0,0.0,63,0.00,CLR,,0.00,0.0,WeatherDisplay:10.37,2013-10-17 12:14:00,
2013-10-17 05:19:00,54.6,42.3,30.02,WSW,238,0.0,0.0,63,0.00,CLR,,0.00,0.0,WeatherDisplay:10.37,2013-10-17 12:19:00,
2013-10-17 05:24:00,54.5,42.6,30.02,WSW,238,0.0,0.0,64,0.00,CLR,,0.00,0.0,WeatherDisplay:10.37,2013-10-17 12:24:00,
2013-10-17 05:29:00,54.4,42.5,30.02,WSW,238,0.0,0.0,64,0.00,CLR,,0.00,0.0,WeatherDisplay:10.37,2013-10-17 12:29:00,
2013-10-17 05:34:00,54.3,42.8,30.02,WSW,237,0.0,0.0,65,0.00,CLR,,0.00,0.0,WeatherDisplay:10.37,2013-10-17 12:34:00,
2013-10-17 05:39:00,54.3,42.8,30.02,WSW,238,0.0,0.0,65,0.00,CLR,,0.00,0.0,WeatherDisplay:10.37,2013-10-17 12:39:00,
2013-10-17 05:44:00,54.2,42.7,30.02,WSW,238,0.0,0.0,65,0.00,CLR,,0.00,0.0,WeatherDisplay:10.37,2013-10-17 12:44:00,
2013-10-17 05:49:00,54.2,43.1,30.03,WSW,238,0.0,0.0,66,0.00,CLR,,0.00,0.0,WeatherDisplay:10.37,2013-10-17 12:49:00,
2013-10-17 05:54:00,54.3,43.2,30.03,WSW,238,0.0,0.0,66,0.00,CLR,,0.00,0.0,WeatherDisplay:10.37,2013-10-17 12:54:00,
2013-10-17 05:59:00,54.3,43.2,30.03,WSW,238,0.0,0.0,66,0.00,CLR,,0.00,0.0,WeatherDisplay:10.37,2013-10-17 12:59:00,
2013-10-17 06:04:00,54.3,43.2,30.03,WSW,238,0.0,0.0,66,0.00,CLR,,0.00,0.0,WeatherDisplay:10.37,2013-10-17 13:04:00,
2013-10-17 06:09:00,54.2,43.5,30.02,WSW,237,0.0,0.0,67,0.00,CLR,,0.00,0.0,WeatherDisplay:10.37,2013-10-17 13:09:00,
2013-10-17 06:14:00,54.2,43.5,30.03,WSW,238,0.0,0.0,67,0.00,CLR,,0.00,0.0,WeatherDisplay:10.37,2013-10-17 13:14:00,
2013-10-17 06:19:00,54.1,43.4,30.03,WSW,238,0.0,0.0,67,0.00,CLR,,0.00,0.0,WeatherDisplay:10.37,2013-10-17 13:19:00,
2013-10-17 06:24:00,53.9,43.2,30.03,WSW,238,0.0,0.0,67,0.00,CLR,,0.00,0.0,WeatherDisplay:10.37,2013-10-17 13:24:00,
2013-10-17 06:29:00,53.8,43.1,30.03,WSW,238,0.0,0.0,67,0.00,CLR,,0.00,0.0,WeatherDisplay:10.37,2013-10-17 13:29:00,
2013-10-17 06:34:00,53.7,43.4,30.03,WSW,237,0.0,0.0,68,0.00,CLR,,0.00,0.0,WeatherDisplay:10.37,2013-10-17 13:34:00,
2013-10-17 06:39:00,53.7,43.8,30.03,WSW,238,0.0,0.0,69,0.00,CLR,,0.00,0.0,WeatherDisplay:10.37,2013-10-17 13:39:00,
2013-10-17 06:44:00,53.6,43.7,30.03,WSW,238,0.0,0.0,69,0.00,CLR,,0.00,0.0,WeatherDisplay:10.37,2013-10-17 13:44:00,
2013-10-17 06:49:00,53.5,43.6,30.03,WSW,238,0.0,0.0,69,0.00,CLR,,0.00,0.0,WeatherDisplay:10.37,2013-10-17 13:49:00,
2013-10-17 06:54:00,53.5,43.6,30.03,WSW,238,0.0,0.0,69,0.00,CLR,,0.00,0.0,WeatherDisplay:10.37,2013-10-17 13:54:00,
2013-10-17 06:59:00,53.4,43.5,30.03,WSW,237,0.0,0.0,69,0.00,CLR,,0.00,0.0,WeatherDisplay:10.37,2013-10-17 13:59:00,
2013-10-17 07:04:00,53.4,43.9,30.03,WSW,238,0.0,0.0,70,0.00,CLR,,0.00,0.0,WeatherDisplay:10.37,2013-10-17 14:04:00,
2013-10-17 07:09:00,53.5,44.3,30.03,WSW,238,0.0,0.0,71,0.00,CLR,,0.00,0.0,WeatherDisplay:10.37,2013-10-17 14:09:00,
2013-10-17 07:14:00,53.6,44.4,30.03,WSW,238,0.0,0.0,71,0.00,CLR,,0.00,0.0,WeatherDisplay:10.37,2013-10-17 14:14:00,
2013-10-17 07:19:00,53.5,44.3,30.03,WSW,238,0.0,0.0,71,0.00,CLR,,0.00,5.0,WeatherDisplay:10.37,2013-10-17 14:19:00,
2013-10-17 07:24:00,53.5,44.3,30.03,WSW,238,0.0,0.0,71,0.00,CLR,,0.00,7.0,WeatherDisplay:10.37,2013-10-17 14:24:00,
2013-10-17 07:29:00,53.5,44.7,30.03,WSW,237,0.0,0.0,72,0.00,CLR,,0.00,11.0,WeatherDisplay:10.37,2013-10-17 14:29:00,
2013-10-17 07:34:00,53.6,44.8,30.03,WSW,237,0.0,0.0,72,0.00,CLR,,0.00,23.0,WeatherDisplay:10.37,2013-10-17 14:34:00,
2013-10-17 07:39:00,53.7,44.9,30.03,WSW,238,0.0,0.0,72,0.00,CLR,,0.00,35.0,WeatherDisplay:10.37,2013-10-17 14:39:00,
2013-10-17 07:44:00,54.0,45.5,30.04,WSW,237,0.0,0.0,73,0.00,CLR,,0.00,49.0,WeatherDisplay:10.37,2013-10-17 14:44:00,
2013-10-17 07:49:00,54.2,45.7,30.04,WSW,238,0.0,0.0,73,0.00,CLR,,0.00,65.0,WeatherDisplay:10.37,2013-10-17 14:49:00,
2013-10-17 07:54:00,54.6,46.5,30.04,WSW,238,0.0,0.0,74,0.00,CLR,,0.00,79.0,WeatherDisplay:10.37,2013-10-17 14:54:00,
2013-10-17 07:59:00,54.8,46.7,30.04,WSW,238,0.0,0.0,74,0.00,CLR,,0.00,86.0,WeatherDisplay:10.37,2013-10-17 14:59:00,
2013-10-17 08:04:00,55.7,47.2,30.04,WSW,237,0.0,0.0,73,0.00,CLR,,0.00,111.0,WeatherDisplay:10.37,2013-10-17 15:04:00,
2013-10-17 08:09:00,56.4,47.5,30.05,WSW,237,0.0,0.0,72,0.00,CLR,,0.00,125.0,WeatherDisplay:10.37,2013-10-17 15:09:00,
2013-10-17 08:18:00,57.4,48.1,30.05,WSW,238,0.0,0.0,71,0.00,CLR,,0.00,149.0,WeatherDisplay:10.37,2013-10-17 15:18:00,
2013-10-17 08:23:00,57.9,48.2,30.05,WSW,238,0.0,0.0,70,0.00,CLR,,0.00,162.0,WeatherDisplay:10.37,2013-10-17 15:23:00,
2013-10-17 08:28:00,58.4,48.7,30.05,WSW,238,0.0,0.0,70,0.00,CLR,,0.00,178.0,WeatherDisplay:10.37,2013-10-17 15:28:00,
2013-10-17 08:33:00,59.3,49.1,30.05,WSW,237,0.0,0.0,69,0.00,CLR,,0.00,192.0,WeatherDisplay:10.37,2013-10-17 15:33:00,
2013-10-17 08:38:00,60.5,49.5,30.05,WSW,237,0.0,0.0,67,0.00,CLR,,0.00,202.0,WeatherDisplay:10.37,2013-10-17 15:38:00,
2013-10-17 08:43:00,61.7,49.4,30.05,WSW,238,0.0,0.0,64,0.00,CLR,,0.00,218.0,WeatherDisplay:10.37,2013-10-17 15:43:00,
2013-10-17 08:48:00,62.7,49.5,30.05,WSW,238,0.0,0.0,62,0.00,CLR,,0.00,232.0,WeatherDisplay:10.37,2013-10-17 15:48:00,
2013-10-17 08:53:00,63.6,50.3,30.05,WSW,237,0.0,0.0,62,0.00,CLR,,0.00,248.0,WeatherDisplay:10.37,2013-10-17 15:53:00,
2013-10-17 08:58:00,64.2,49.6,30.05,WSW,238,0.0,0.0,59,0.00,CLR,,0.00,264.0,WeatherDisplay:10.37,2013-10-17 15:58:00,
2013-10-17 09:03:00,64.2,49.6,30.06,WSW,238,0.0,0.0,59,0.00,CLR,,0.00,276.0,WeatherDisplay:10.37,2013-10-17 16:03:00,
2013-10-17 09:08:00,64.2,49.6,30.06,WSW,237,0.0,0.0,59,0.00,CLR,,0.00,288.0,WeatherDisplay:10.37,2013-10-17 16:08:00,
2013-10-17 09:13:00,64.2,50.0,30.06,WSW,238,0.0,0.0,60,0.00,CLR,,0.00,299.0,WeatherDisplay:10.37,2013-10-17 16:13:00,
2013-10-17 09:18:00,64.3,50.1,30.06,WSW,238,0.0,0.0,60,0.00,CLR,,0.00,315.0,WeatherDisplay:10.37,2013-10-17 16:18:00,
2013-10-17 09:23:00,64.8,51.0,30.06,WSW,237,0.0,0.0,61,0.00,CLR,,0.00,329.0,WeatherDisplay:10.37,2013-10-17 16:23:00,
2013-10-17 09:28:00,65.5,51.2,30.06,WSW,238,0.0,0.0,60,0.00,CLR,,0.00,341.0,WeatherDisplay:10.37,2013-10-17 16:28:00,
2013-10-17 09:33:00,66.6,51.8,30.06,WSW,238,0.0,1.2,59,0.00,CLR,,0.00,355.0,WeatherDisplay:10.37,2013-10-17 16:33:00,
2013-10-17 09:38:00,67.5,51.2,30.06,WSW,238,1.1,3.5,56,0.00,CLR,,0.00,369.0,WeatherDisplay:10.37,2013-10-17 16:38:00,
2013-10-17 09:43:00,67.9,50.6,30.06,WSW,238,0.0,0.0,54,0.00,CLR,,0.00,381.0,WeatherDisplay:10.37,2013-10-17 16:43:00,
2013-10-17 09:48:00,67.8,50.5,30.06,WSW,238,0.0,1.2,54,0.00,CLR,,0.00,394.0,WeatherDisplay:10.37,2013-10-17 16:48:00,
2013-10-17 09:53:00,67.9,50.6,30.05,WSW,238,0.7,3.5,54,0.00,CLR,,0.00,408.0,WeatherDisplay:10.37,2013-10-17 16:53:00,
2013-10-17 09:58:00,68.2,50.9,30.05,WSW,238,0.0,0.0,54,0.00,CLR,,0.00,418.0,WeatherDisplay:10.37,2013-10-17 16:58:00,
2013-10-17 10:03:00,68.7,50.4,30.05,WSW,238,0.0,0.0,52,0.00,CLR,,0.00,431.0,WeatherDisplay:10.37,2013-10-17 17:03:00,
2013-10-17 10:08:00,69.1,50.2,30.06,SW,232,0.3,3.5,51,0.00,CLR,,0.00,441.0,WeatherDisplay:10.37,2013-10-17 17:08:00,
2013-10-17 10:13:00,69.3,50.4,30.05,SW,232,0.0,0.0,51,0.00,CLR,,0.00,454.0,WeatherDisplay:10.37,2013-10-17 17:13:00,
2013-10-17 10:18:00,69.7,49.7,30.05,SW,232,0.0,0.0,49,0.00,CLR,,0.00,466.0,WeatherDisplay:10.37,2013-10-17 17:18:00,
2013-10-17 10:23:00,69.9,49.9,30.05,SW,232,0.0,1.2,49,0.00,CLR,,0.00,476.0,WeatherDisplay:10.37,2013-10-17 17:23:00,
2013-10-17 10:28:00,69.8,49.8,30.05,SW,233,0.0,0.0,49,0.00,CLR,,0.00,485.0,WeatherDisplay:10.37,2013-10-17 17:28:00,
2013-10-17 10:33:00,70.0,50.0,30.05,SW,233,0.7,2.3,49,0.00,CLR,,0.00,497.0,WeatherDisplay:10.37,2013-10-17 17:33:00,
2013-10-17 10:38:00,70.4,49.8,30.05,SSW,204,0.0,1.2,48,0.00,CLR,,0.00,504.0,WeatherDisplay:10.37,2013-10-17 17:38:00,
2013-10-17 10:43:00,70.8,49.6,30.05,SSW,204,0.7,3.5,47,0.00,CLR,,0.00,513.0,WeatherDisplay:10.37,2013-10-17 17:43:00,
2013-10-17 10:48:00,71.5,49.6,30.05,SSW,204,2.2,3.5,46,0.00,CLR,,0.00,522.0,WeatherDisplay:10.37,2013-10-17 17:48:00,
2013-10-17 10:53:00,71.6,49.7,30.05,SSW,204,0.2,1.2,46,0.00,CLR,,0.00,531.0,WeatherDisplay:10.37,2013-10-17 17:53:00,
2013-10-17 10:58:00,71.9,48.8,30.05,South,189,2.4,3.5,44,0.00,CLR,,0.00,538.0,WeatherDisplay:10.37,2013-10-17 17:58:00,
2013-10-17 11:03:00,72.0,49.5,30.05,South,183,2.4,4.6,45,0.00,CLR,,0.00,547.0,WeatherDisplay:10.37,2013-10-17 18:03:00,
2013-10-17 11:08:00,72.2,49.7,30.05,SSE,161,2.9,4.6,45,0.00,CLR,,0.00,554.0,WeatherDisplay:10.37,2013-10-17 18:08:00,
2013-10-17 11:13:00,72.1,49.0,30.05,SSE,162,2.3,3.5,44,0.00,CLR,,0.00,561.0,WeatherDisplay:10.37,2013-10-17 18:13:00,
2013-10-17 11:18:00,72.1,49.0,30.05,SSE,162,2.4,4.6,44,0.00,CLR,,0.00,568.0,WeatherDisplay:10.37,2013-10-17 18:18:00,
2013-10-17 11:23:00,72.2,48.5,30.05,SSE,162,1.7,3.5,43,0.00,CLR,,0.00,575.0,WeatherDisplay:10.37,2013-10-17 18:23:00,
2013-10-17 11:28:00,72.5,48.7,30.05,SSE,162,1.9,3.5,43,0.00,CLR,,0.00,580.0,WeatherDisplay:10.37,2013-10-17 18:28:00,
2013-10-17 11:33:00,72.7,48.3,30.05,SSE,162,0.0,0.0,42,0.00,CLR,,0.00,587.0,WeatherDisplay:10.37,2013-10-17 18:33:00,
2013-10-17 11:38:00,73.2,48.7,30.05,SSE,162,0.5,3.5,42,0.00,CLR,,0.00,592.0,WeatherDisplay:10.37,2013-10-17 18:38:00,
2013-10-17 11:43:00,73.5,48.4,30.04,SSE,162,0.9,3.5,41,0.00,CLR,,0.00,598.0,WeatherDisplay:10.37,2013-10-17 18:43:00,
2013-10-17 11:48:00,73.8,45.9,30.04,SE,142,1.5,2.3,37,0.00,CLR,,0.00,599.0,WeatherDisplay:10.37,2013-10-17 18:48:00,
2013-10-17 11:53:00,73.5,41.8,30.04,NNE,27,2.6,3.5,32,0.00,CLR,,0.00,605.0,WeatherDisplay:10.37,2013-10-17 18:53:00,
2013-10-17 11:58:00,73.2,43.1,30.04,North,10,1.8,3.5,34,0.00,CLR,,0.00,606.0,WeatherDisplay:10.37,2013-10-17 18:58:00,
2013-10-17 12:03:00,73.2,43.9,30.04,NNE,19,1.2,2.3,35,0.00,CLR,,0.00,610.0,WeatherDisplay:10.37,2013-10-17 19:03:00,
2013-10-17 12:08:00,73.6,45.0,30.04,NNE,20,0.6,1.2,36,0.00,CLR,,0.00,613.0,WeatherDisplay:10.37,2013-10-17 19:08:00,
2013-10-17 12:13:00,74.1,44.7,30.04,ENE,69,1.2,3.0,35,0.00,CLR,,0.00,617.0,WeatherDisplay:10.37,2013-10-17 19:13:00,
2013-10-17 12:18:00,74.7,46.0,30.03,SE,140,1.9,3.5,36,0.00,CLR,,0.00,619.0,WeatherDisplay:10.37,2013-10-17 19:18:00,
2013-10-17 12:23:00,75.4,45.8,30.03,SE,140,0.6,1.2,35,0.00,CLR,,0.00,621.0,WeatherDisplay:10.37,2013-10-17 19:23:00,
2013-10-17 12:28:00,75.6,42.8,30.03,SE,140,0.5,2.3,31,0.00,CLR,,0.00,619.0,WeatherDisplay:10.37,2013-10-17 19:28:00,
2013-10-17 12:31:00,75.6,42.0,30.03,SE,140,0.2,3.5,30,0.00,CLR,,0.00,621.0,WeatherDisplay:10.37,2013-10-17 19:31:00,
2013-10-17 12:36:00,75.9,41.3,30.03,SE,140,0.1,1.2,29,0.00,CLR,,0.00,624.0,WeatherDisplay:10.37,2013-10-17 19:36:00,
2013-10-17 12:41:00,76.5,43.6,30.02,SE,145,0.0,1.2,31,0.00,CLR,,0.00,626.0,WeatherDisplay:10.37,2013-10-17 19:41:00,
2013-10-17 12:46:00,77.0,44.0,30.02,SE,146,0.0,0.0,31,0.00,CLR,,0.00,622.0,WeatherDisplay:10.37,2013-10-17 19:46:00,
2013-10-17 12:51:00,77.6,45.4,30.02,SE,146,0.4,1.2,32,0.00,CLR,,0.00,621.0,WeatherDisplay:10.37,2013-10-17 19:51:00,
2013-10-17 12:56:00,78.2,44.2,30.01,SE,146,0.3,1.2,30,0.00,CLR,,0.00,621.0,WeatherDisplay:10.37,2013-10-17 19:56:00,
2013-10-17 13:01:00,77.9,40.2,30.01,SSE,148,0.2,2.3,26,0.00,CLR,,0.00,622.0,WeatherDisplay:10.37,2013-10-17 20:01:00,
2013-10-17 13:06:00,77.5,39.9,30.01,SSE,148,0.9,3.5,26,0.00,CLR,,0.00,622.0,WeatherDisplay:10.37,2013-10-17 20:06:00,
2013-10-17 13:11:00,77.5,39.9,30.00,SSE,151,0.0,0.0,26,0.00,CLR,,0.00,619.0,WeatherDisplay:10.37,2013-10-17 20:11:00,
2013-10-17 13:16:00,77.8,39.1,30.00,North,359,0.5,3.5,25,0.00,CLR,,0.00,622.0,WeatherDisplay:10.37,2013-10-17 20:16:00,
2013-10-17 13:21:00,78.2,38.4,30.00,NNE,23,0.0,0.0,24,0.00,CLR,,0.00,615.0,WeatherDisplay:10.37,2013-10-17 20:21:00,
2013-10-17 13:26:00,78.2,38.4,30.00,North,349,2.7,3.5,24,0.00,CLR,,0.00,612.0,WeatherDisplay:10.37,2013-10-17 20:26:00,
2013-10-17 13:31:00,78.4,38.6,30.00,NW,309,1.6,3.5,24,0.00,CLR,,0.00,610.0,WeatherDisplay:10.37,2013-10-17 20:31:00,
2013-10-17 13:36:00,78.5,37.6,29.99,NE,43,0.2,1.2,23,0.00,CLR,,0.00,608.0,WeatherDisplay:10.37,2013-10-17 20:36:00,
2013-10-17 13:41:00,78.8,38.9,29.99,North,5,1.9,3.5,24,0.00,CLR,,0.00,605.0,WeatherDisplay:10.37,2013-10-17 20:41:00,
2013-10-17 13:46:00,78.9,39.0,29.99,North,10,3.1,3.5,24,0.00,CLR,,0.00,596.0,WeatherDisplay:10.37,2013-10-17 20:46:00,
2013-10-17 13:51:00,79.0,39.1,29.99,NE,41,1.0,2.3,24,0.00,FEW,,0.00,587.0,WeatherDisplay:10.37,2013-10-17 20:51:00,
2013-10-17 13:56:00,79.6,41.7,29.99,East,93,0.9,3.5,26,0.00,FEW,,0.00,577.0,WeatherDisplay:10.37,2013-10-17 20:56:00,
2013-10-17 14:01:00,80.3,42.3,29.99,SE,132,2.9,4.0,26,0.00,FEW,,0.00,571.0,WeatherDisplay:10.37,2013-10-17 21:01:00,
2013-10-17 14:06:00,80.7,42.6,29.98,SSE,154,0.9,2.3,26,0.00,FEW,,0.00,564.0,WeatherDisplay:10.37,2013-10-17 21:06:00,
2013-10-17 14:11:00,80.7,41.6,29.98,SSE,154,0.1,1.2,25,0.00,FEW,,0.00,563.0,WeatherDisplay:10.37,2013-10-17 21:11:00,
2013-10-17 14:16:00,80.4,40.3,29.98,NW,305,2.9,5.0,24,0.00,FEW,,0.00,561.0,WeatherDisplay:10.37,2013-10-17 21:16:00,
2013-10-17 14:21:00,80.0,40.0,29.98,WNW,282,4.5,5.8,24,0.00,FEW,,0.00,561.0,WeatherDisplay:10.37,2013-10-17 21:21:00,
2013-10-17 14:26:00,79.3,39.4,29.98,NNW,336,3.8,6.9,24,0.00,FEW,,0.00,555.0,WeatherDisplay:10.37,2013-10-17 21:26:00,
2013-10-17 14:31:00,79.1,38.1,29.98,West,266,6.3,6.9,23,0.00,FEW,,0.00,550.0,WeatherDisplay:10.37,2013-10-17 21:31:00,
2013-10-17 14:36:00,78.6,37.7,29.97,WNW,300,3.8,6.9,23,0.00,FEW,,0.00,540.0,WeatherDisplay:10.37,2013-10-17 21:36:00,
2013-10-17 14:41:00,78.4,38.6,29.97,WNW,290,1.2,10.4,24,0.00,FEW,,0.00,531.0,WeatherDisplay:10.37,2013-10-17 21:41:00,
2013-10-17 14:46:00,78.5,37.6,29.97,West,269,6.2,9.0,23,0.00,FEW,,0.00,526.0,WeatherDisplay:10.37,2013-10-17 21:46:00,
2013-10-17 14:51:00,78.5,36.5,29.97,West,281,5.8,10.0,22,0.00,FEW,,0.00,517.0,WeatherDisplay:10.37,2013-10-17 21:51:00,
2013-10-17 14:56:00,78.7,37.8,29.97,North,10,3.7,4.6,23,0.00,FEW,,0.00,508.0,WeatherDisplay:10.37,2013-10-17 21:56:00,
2013-10-17 15:01:00,78.9,36.8,29.97,WNW,285,2.6,10.0,22,0.00,FEW,,0.00,499.0,WeatherDisplay:10.37,2013-10-17 22:01:00,
2013-10-17 15:06:00,78.9,35.6,29.97,NNW,344,2.4,6.9,21,0.00,FEW,,0.00,490.0,WeatherDisplay:10.37,2013-10-17 22:06:00,
2013-10-17 15:11:00,79.2,34.6,29.97,NW,305,3.7,5.8,20,0.00,FEW,,0.00,480.0,WeatherDisplay:10.37,2013-10-17 22:11:00,
2013-10-17 15:16:00,79.2,33.4,29.96,NNW,328,4.3,6.9,19,0.00,FEW,,0.00,468.0,WeatherDisplay:10.37,2013-10-17 22:16:00,
2013-10-17 15:21:00,79.2,34.6,29.96,NNW,339,3.0,4.6,20,0.00,FEW,,0.00,457.0,WeatherDisplay:10.37,2013-10-17 22:21:00,
2013-10-17 15:26:00,79.3,33.4,29.96,NNW,330,2.3,10.4,19,0.00,SCT,,0.00,446.0,WeatherDisplay:10.37,2013-10-17 22:26:00,
2013-10-17 15:31:00,79.4,33.5,29.96,NW,324,3.5,5.0,19,0.00,SCT,,0.00,434.0,WeatherDisplay:10.37,2013-10-17 22:31:00,
2013-10-17 15:36:00,79.6,33.7,29.96,North,10,3.4,4.6,19,0.00,SCT,,0.00,424.0,WeatherDisplay:10.37,2013-10-17 22:36:00,
2013-10-17 15:41:00,79.8,33.9,29.96,NNW,344,2.9,4.6,19,0.00,SCT,,0.00,411.0,WeatherDisplay:10.37,2013-10-17 22:41:00,
2013-10-17 15:46:00,79.9,33.9,29.96,North,350,0.2,1.2,19,0.00,SCT,,0.00,401.0,WeatherDisplay:10.37,2013-10-17 22:46:00,
2013-10-17 15:51:00,79.9,33.9,29.96,WSW,244,3.3,6.9,19,0.00,SCT,,0.00,387.0,WeatherDisplay:10.37,2013-10-17 22:51:00,
2013-10-17 15:56:00,80.3,35.6,29.96,SW,227,1.4,6.9,20,0.00,SCT,,0.00,374.0,WeatherDisplay:10.37,2013-10-17 22:56:00,
2013-10-17 16:01:00,80.9,36.1,29.95,SW,229,4.5,4.6,20,0.00,SCT,,0.00,360.0,WeatherDisplay:10.37,2013-10-17 23:01:00,
2013-10-17 16:06:00,81.0,34.8,29.95,SW,223,4.3,6.9,19,0.00,SCT,,0.00,346.0,WeatherDisplay:10.37,2013-10-17 23:06:00,
2013-10-17 16:11:00,81.0,36.1,29.95,SW,227,4.5,6.9,20,0.00,SCT,,0.00,334.0,WeatherDisplay:10.37,2013-10-17 23:11:00,
2013-10-17 16:16:00,81.0,34.8,29.95,SSW,213,3.6,10.0,19,0.00,SCT,,0.00,318.0,WeatherDisplay:10.37,2013-10-17 23:16:00,
2013-10-17 16:21:00,80.7,37.1,29.95,South,179,2.4,6.0,21,0.00,SCT,,0.00,308.0,WeatherDisplay:10.37,2013-10-17 23:21:00,
2013-10-17 16:26:00,80.2,35.5,29.95,SW,217,4.3,4.6,20,0.00,SCT,,0.00,294.0,WeatherDisplay:10.37,2013-10-17 23:26:00,
2013-10-17 16:31:00,79.8,35.1,29.95,SW,233,5.4,9.2,20,0.00,SCT,,0.00,279.0,WeatherDisplay:10.37,2013-10-17 23:31:00,
2013-10-17 16:36:00,79.5,34.9,29.95,SSW,207,5.8,11.5,20,0.00,SCT,,0.00,267.0,WeatherDisplay:10.37,2013-10-17 23:36:00,
2013-10-17 16:41:00,79.2,37.1,29.95,SSW,210,4.9,5.0,22,0.00,SCT,,0.00,251.0,WeatherDisplay:10.37,2013-10-17 23:41:00,
2013-10-17 16:46:00,78.9,35.6,29.95,SW,217,4.3,6.9,21,0.00,SCT,,0.00,237.0,WeatherDisplay:10.37,2013-10-17 23:46:00,
2013-10-17 16:51:00,78.2,35.0,29.95,WSW,237,5.3,11.5,21,0.00,SCT,,0.00,225.0,WeatherDisplay:10.37,2013-10-17 23:51:00,
2013-10-17 16:57:00,77.2,35.4,29.95,WSW,239,6.5,10.4,22,0.00,SCT,,0.00,213.0,WeatherDisplay:10.37,2013-10-17 23:57:00,
2013-10-17 17:01:00,76.3,36.8,29.95,SSW,200,6.9,11.5,24,0.00,SCT,,0.00,199.0,WeatherDisplay:10.37,2013-10-18 00:01:00,
2013-10-17 17:07:00,75.6,37.3,29.95,SW,223,7.4,13.8,25,0.00,BKN,,0.00,185.0,WeatherDisplay:10.37,2013-10-18 00:07:00,
2013-10-17 17:12:00,75.0,36.8,29.95,SW,227,5.6,11.5,25,0.00,BKN,,0.00,172.0,WeatherDisplay:10.37,2013-10-18 00:12:00,
2013-10-17 17:17:00,74.8,36.6,29.95,SW,233,0.2,3.5,25,0.00,BKN,,0.00,158.0,WeatherDisplay:10.37,2013-10-18 00:17:00,
2013-10-17 17:22:00,74.7,37.5,29.95,SW,232,0.0,0.0,26,0.00,BKN,,0.00,144.0,WeatherDisplay:10.37,2013-10-18 00:22:00,
2013-10-17 17:27:00,74.7,36.5,29.95,SSW,206,1.5,3.5,25,0.00,BKN,,0.00,132.0,WeatherDisplay:10.37,2013-10-18 00:27:00,
2013-10-17 17:32:00,74.6,36.4,29.95,SW,219,2.8,4.6,25,0.00,BKN,,0.00,116.0,WeatherDisplay:10.37,2013-10-18 00:32:00,
2013-10-17 17:37:00,73.8,36.8,29.95,SSW,201,4.6,6.0,26,0.00,BKN,,0.00,102.0,WeatherDisplay:10.37,2013-10-18 00:37:00,
2013-10-17 17:42:00,73.3,38.2,29.95,SW,225,5.0,7.0,28,0.00,BKN,,0.00,88.0,WeatherDisplay:10.37,2013-10-18 00:42:00,
2013-10-17 17:47:00,73.0,38.9,29.95,SW,225,8.5,10.0,29,0.00,BKN,,0.00,72.0,WeatherDisplay:10.37,2013-10-18 00:47:00,
2013-10-17 17:52:00,72.5,41.0,29.94,WSW,237,5.2,9.2,32,0.00,BKN,,0.00,58.0,WeatherDisplay:10.37,2013-10-18 00:52:00,
2013-10-17 17:57:00,71.9,41.2,29.95,SSW,204,2.8,5.8,33,0.00,BKN,,0.00,46.0,WeatherDisplay:10.37,2013-10-18 00:57:00,
2013-10-17 18:02:00,71.2,42.9,29.95,SSW,198,5.0,6.0,36,0.00,BKN,,0.00,35.0,WeatherDisplay:10.37,2013-10-18 01:02:00,
2013-10-17 18:07:00,70.6,44.4,29.95,SSW,208,3.3,9.2,39,0.00,BKN,,0.00,26.0,WeatherDisplay:10.37,2013-10-18 01:07:00,
2013-10-17 18:12:00,69.7,43.6,29.94,South,191,3.7,5.0,39,0.00,CLR,,0.00,14.0,WeatherDisplay:10.37,2013-10-18 01:12:00,
2013-10-17 18:17:00,69.0,43.7,29.94,SSW,202,2.4,4.6,40,0.00,CLR,,0.00,12.0,WeatherDisplay:10.37,2013-10-18 01:17:00,
2013-10-17 18:22:00,68.3,43.7,29.95,SW,221,4.4,5.8,41,0.00,CLR,,0.00,9.0,WeatherDisplay:10.37,2013-10-18 01:22:00,
2013-10-17 18:27:00,67.7,42.5,29.95,SW,219,2.2,5.0,40,0.00,CLR,,0.00,5.0,WeatherDisplay:10.37,2013-10-18 01:27:00,
2013-10-17 18:32:00,67.2,40.7,29.95,SW,217,3.4,4.6,38,0.00,CLR,,0.00,0.0,WeatherDisplay:10.37,2013-10-18 01:32:00,
2013-10-17 18:37:00,66.9,41.8,29.95,SSW,209,3.5,5.8,40,0.00,CLR,,0.00,0.0,WeatherDisplay:10.37,2013-10-18 01:37:00,
2013-10-17 18:42:00,66.6,40.9,29.95,SSW,195,1.4,3.5,39,0.00,CLR,,0.00,0.0,WeatherDisplay:10.37,2013-10-18 01:42:00,
2013-10-17 18:47:00,66.4,42.0,29.95,SSE,163,3.3,5.0,41,0.00,CLR,,0.00,0.0,WeatherDisplay:10.37,2013-10-18 01:47:00,
2013-10-17 18:52:00,66.2,39.8,29.95,South,171,0.6,3.5,38,0.00,CLR,,0.00,0.0,WeatherDisplay:10.37,2013-10-18 01:52:00,
2013-10-17 18:57:00,66.0,39.7,29.95,SW,228,3.7,6.9,38,0.00,CLR,,0.00,0.0,WeatherDisplay:10.37,2013-10-18 01:57:00,
2013-10-17 19:02:00,65.9,38.9,29.94,SW,229,2.7,4.6,37,0.00,CLR,,0.00,0.0,WeatherDisplay:10.37,2013-10-18 02:02:00,
2013-10-17 19:07:00,66.0,40.3,29.94,SSW,194,3.0,3.5,39,0.00,CLR,,0.00,0.0,WeatherDisplay:10.37,2013-10-18 02:07:00,
2013-10-17 19:12:00,65.9,40.9,29.95,SSW,194,3.0,3.5,40,0.00,CLR,,0.00,0.0,WeatherDisplay:10.37,2013-10-18 02:12:00,
2013-10-17 19:17:00,65.7,41.3,29.95,SSW,196,3.3,5.0,41,0.00,CLR,,0.00,0.0,WeatherDisplay:10.37,2013-10-18 02:17:00,
2013-10-17 19:22:00,65.4,41.7,29.95,SW,215,5.0,8.1,42,0.00,CLR,,0.00,0.0,WeatherDisplay:10.37,2013-10-18 02:22:00,
2013-10-17 19:27:00,65.2,42.1,29.95,WSW,239,1.4,2.3,43,0.00,CLR,,0.00,0.0,WeatherDisplay:10.37,2013-10-18 02:27:00,
2013-10-17 19:32:00,65.0,43.1,29.95,WSW,239,1.7,3.5,45,0.00,CLR,,0.00,0.0,WeatherDisplay:10.37,2013-10-18 02:32:00,
2013-10-17 19:37:00,64.8,42.9,29.95,WSW,238,0.0,0.0,45,0.00,CLR,,0.00,0.0,WeatherDisplay:10.37,2013-10-18 02:37:00,
2013-10-17 19:42:00,64.6,43.3,29.95,WSW,237,0.0,0.0,46,0.00,CLR,,0.00,0.0,WeatherDisplay:10.37,2013-10-18 02:42:00,
2013-10-17 19:47:00,64.4,43.7,29.95,WSW,238,0.0,0.0,47,0.00,CLR,,0.00,0.0,WeatherDisplay:10.37,2013-10-18 02:47:00,
2013-10-17 19:52:00,64.1,44.5,29.95,WSW,238,0.5,2.3,49,0.00,CLR,,0.00,0.0,WeatherDisplay:10.37,2013-10-18 02:52:00,
2013-10-17 19:57:00,63.8,45.3,29.95,WSW,237,1.3,3.5,51,0.00,CLR,,0.00,0.0,WeatherDisplay:10.37,2013-10-18 02:57:00,
2013-10-17 20:02:00,63.4,45.5,29.95,SW,214,0.9,3.5,52,0.00,CLR,,0.00,0.0,WeatherDisplay:10.37,2013-10-18 03:02:00,
2013-10-17 20:07:00,63.0,46.1,29.95,SSW,213,1.1,3.5,54,0.00,CLR,,0.00,0.0,WeatherDisplay:10.37,2013-10-18 03:07:00,
2013-10-17 20:12:00,62.7,46.8,29.95,SW,216,1.5,5.0,56,0.00,CLR,,0.00,0.0,WeatherDisplay:10.37,2013-10-18 03:12:00,
2013-10-17 20:17:00,62.3,46.4,29.95,SW,216,1.7,3.5,56,0.00,CLR,,0.00,0.0,WeatherDisplay:10.37,2013-10-18 03:17:00,
2013-10-17 20:22:00,62.1,46.7,29.96,SSW,204,5.6,8.1,57,0.00,CLR,,0.00,0.0,WeatherDisplay:10.37,2013-10-18 03:22:00,
2013-10-17 20:27:00,61.8,46.9,29.96,SSW,205,3.5,4.6,58,0.00,CLR,,0.00,0.0,WeatherDisplay:10.37,2013-10-18 03:27:00,
2013-10-17 20:32:00,61.6,46.7,29.96,South,185,2.4,4.6,58,0.00,CLR,,0.00,0.0,WeatherDisplay:10.37,2013-10-18 03:32:00,
2013-10-17 20:37:00,61.4,46.5,29.96,South,185,3.3,4.6,58,0.00,CLR,,0.00,0.0,WeatherDisplay:10.37,2013-10-18 03:37:00,
2013-10-17 20:42:00,61.4,46.9,29.95,South,185,0.3,3.5,59,0.00,CLR,,0.00,0.0,WeatherDisplay:10.37,2013-10-18 03:42:00,
2013-10-17 20:47:00,61.2,46.8,29.95,South,185,0.1,1.2,59,0.00,CLR,,0.00,0.0,WeatherDisplay:10.37,2013-10-18 03:47:00,
2013-10-17 20:52:00,61.1,47.1,29.95,SSW,210,4.2,6.9,60,0.00,CLR,,0.00,0.0,WeatherDisplay:10.37,2013-10-18 03:52:00,
2013-10-17 20:57:00,61.0,47.0,29.95,SSW,210,0.3,2.3,60,0.00,CLR,,0.00,0.0,WeatherDisplay:10.37,2013-10-18 03:57:00,
2013-10-17 21:01:00,60.9,46.9,29.95,SSW,210,0.5,3.5,60,0.00,CLR,,0.00,0.0,WeatherDisplay:10.37,2013-10-18 04:01:00,
2013-10-17 21:06:00,60.7,47.2,29.95,SSW,206,2.0,3.5,61,0.00,CLR,,0.00,0.0,WeatherDisplay:10.37,2013-10-18 04:06:00,
2013-10-17 21:11:00,60.5,47.4,29.95,SSW,204,4.0,5.8,62,0.00,CLR,,0.00,0.0,WeatherDisplay:10.37,2013-10-18 04:11:00,
2013-10-17 21:16:00,60.3,48.5,29.95,SSW,197,3.3,3.5,65,0.00,CLR,,0.00,0.0,WeatherDisplay:10.37,2013-10-18 04:16:00,
2013-10-17 21:21:00,60.1,49.1,29.96,South,181,4.0,4.6,67,0.00,CLR,,0.00,0.0,WeatherDisplay:10.37,2013-10-18 04:21:00,
2013-10-17 21:26:00,60.0,49.4,29.96,SSW,192,4.5,5.8,68,0.00,CLR,,0.00,0.0,WeatherDisplay:10.37,2013-10-18 04:26:00,
2013-10-17 21:31:00,59.8,49.2,29.96,SW,224,3.7,8.1,68,0.00,CLR,,0.00,0.0,WeatherDisplay:10.37,2013-10-18 04:31:00,
2013-10-17 21:36:00,59.5,49.3,29.96,SSW,202,3.8,5.8,69,0.00,CLR,,0.00,0.0,WeatherDisplay:10.37,2013-10-18 04:36:00,
2013-10-17 21:41:00,59.2,49.0,29.96,SW,231,2.8,4.6,69,0.00,CLR,,0.00,0.0,WeatherDisplay:10.37,2013-10-18 04:41:00,
2013-10-17 21:46:00,59.1,49.3,29.96,South,182,5.6,10.4,70,0.00,CLR,,0.00,0.0,WeatherDisplay:10.37,2013-10-18 04:46:00,
2013-10-17 21:51:00,59.0,49.6,29.96,SW,225,4.0,8.1,71,0.00,CLR,,0.00,0.0,WeatherDisplay:10.37,2013-10-18 04:51:00,
2013-10-17 21:56:00,58.8,49.4,29.97,SW,221,2.3,5.8,71,0.00,CLR,,0.00,0.0,WeatherDisplay:10.37,2013-10-18 04:56:00,
2013-10-17 22:01:00,58.7,49.7,29.97,SW,221,0.7,2.3,72,0.00,CLR,,0.00,0.0,WeatherDisplay:10.37,2013-10-18 05:01:00,
2013-10-17 22:06:00,58.6,50.0,29.97,SW,221,4.6,5.8,73,0.00,CLR,,0.00,0.0,WeatherDisplay:10.37,2013-10-18 05:06:00,
2013-10-17 22:11:00,58.4,49.8,29.97,SW,221,2.8,4.6,73,0.00,CLR,,0.00,0.0,WeatherDisplay:10.37,2013-10-18 05:11:00,
2013-10-17 22:16:00,58.2,49.6,29.97,SW,224,1.6,3.5,73,0.00,CLR,,0.00,0.0,WeatherDisplay:10.37,2013-10-18 05:16:00,
2013-10-17 22:21:00,58.0,49.8,29.97,SW,233,0.8,3.5,74,0.00,CLR,,0.00,0.0,WeatherDisplay:10.37,2013-10-18 05:21:00,
2013-10-17 22:26:00,57.9,49.7,29.97,WSW,243,4.0,5.8,74,0.00,CLR,,0.00,0.0,WeatherDisplay:10.37,2013-10-18 05:26:00,
2013-10-17 22:31:00,57.7,49.8,29.97,SW,228,3.3,5.8,75,0.00,CLR,,0.00,0.0,WeatherDisplay:10.37,2013-10-18 05:31:00,
2013-10-17 22:36:00,57.5,49.6,29.97,SW,235,0.9,3.5,75,0.00,CLR,,0.00,0.0,WeatherDisplay:10.37,2013-10-18 05:36:00,
2013-10-17 22:41:00,57.4,49.9,29.97,SW,232,4.1,4.6,76,0.00,CLR,,0.00,0.0,WeatherDisplay:10.37,2013-10-18 05:41:00,
2013-10-17 22:46:00,57.3,49.8,29.97,SW,217,5.8,6.0,76,0.00,CLR,,0.00,0.0,WeatherDisplay:10.37,2013-10-18 05:46:00,
2013-10-17 22:51:00,57.0,49.9,29.97,SW,230,3.5,6.9,77,0.00,CLR,,0.00,0.0,WeatherDisplay:10.37,2013-10-18 05:51:00,
2013-10-17 22:56:00,56.8,49.7,29.97,SW,225,4.7,9.2,77,0.00,CLR,,0.00,0.0,WeatherDisplay:10.37,2013-10-18 05:56:00,
2013-10-17 23:01:00,56.7,49.9,29.97,SW,219,4.9,6.9,78,0.00,CLR,,0.00,0.0,WeatherDisplay:10.37,2013-10-18 06:01:00,
2013-10-17 23:06:00,56.5,49.7,29.97,SW,221,3.1,4.6,78,0.00,CLR,,0.00,0.0,WeatherDisplay:10.37,2013-10-18 06:06:00,
2013-10-17 23:11:00,56.4,50.0,29.97,WSW,246,3.5,5.0,79,0.00,CLR,,0.00,0.0,WeatherDisplay:10.37,2013-10-18 06:11:00,
2013-10-17 23:16:00,56.2,49.8,29.97,SW,235,4.5,9.2,79,0.00,CLR,,0.00,0.0,WeatherDisplay:10.37,2013-10-18 06:16:00,
2013-10-17 23:21:00,56.1,50.0,29.97,SW,233,4.4,5.8,80,0.00,CLR,,0.00,0.0,WeatherDisplay:10.37,2013-10-18 06:21:00,
2013-10-17 23:26:00,56.0,49.9,29.97,WSW,237,4.0,6.9,80,0.00,CLR,,0.00,0.0,WeatherDisplay:10.37,2013-10-18 06:26:00,
2013-10-17 23:31:00,55.9,49.8,29.97,SW,235,4.0,5.0,80,0.00,CLR,,0.00,0.0,WeatherDisplay:10.37,2013-10-18 06:31:00,
2013-10-17 23:36:00,55.9,50.2,29.97,SW,231,4.6,6.9,81,0.00,CLR,,0.00,0.0,WeatherDisplay:10.37,2013-10-18 06:36:00,
2013-10-17 23:41:00,55.7,50.0,29.97,SW,233,1.5,3.5,81,0.00,CLR,,0.00,0.0,WeatherDisplay:10.37,2013-10-18 06:41:00,
2013-10-17 23:46:00,55.6,50.2,29.97,SW,231,3.6,6.0,82,0.00,CLR,,0.00,0.0,WeatherDisplay:10.37,2013-10-18 06:46:00,
2013-10-17 23:51:00,55.4,50.0,29.97,WSW,239,3.0,4.6,82,0.00,CLR,,0.00,0.0,WeatherDisplay:10.37,2013-10-18 06:51:00,
2013-10-17 23:56:00,55.3,49.9,29.97,WSW,248,1.0,3.5,82,0.00,CLR,,0.00,0.0,WeatherDisplay:10.37,2013-10-18 06:56:00,